GSAT0221 (GALILEO 25)

Last updated on Nov. 19, 2019, 4:25 a.m. UTC

1 43564U 18060A   19322.41464641 -.00000061  00000-0  00000+0 0  9991
2 43564  56.6701  46.8611 0005057 254.8438 105.1308  1.70476204  8216
UTC
Height (km)
Latitude
Longitude
Inclination
Orbital Period
UTC large
Height (km)
Speed (km/s)
/
Latitude / Longitude
Inclination (degrees)
Orbital Period (minutes)
Azimuth
Elevation
Range (km)
Doppler Factor
iOS Compass Heading
iOS Angle

Next 30 passes for location: Hong Kong

Rise time Rise Azimuth (degrees) Set time Set Azimuth (degrees) Duration Max altitude (degrees)

No matching passes for this satellites